Malmstrom AFB, MT

2:14 PM MST on December 09, 2019 (GMT -0700)
Malmstrom AFB

Weather History for KGFA - October, 2019

Change the Weather History Date:

Saturday, October 19, 2019

  Actual Average (KGTF) Record (KGTF)
Temperature  
Mean Temperature 45 °F -  
Max Temperature 52 °F 59 °F 81 °F (1974)
Min Temperature 39 °F 35 °F 2 °F (1905)
Degree Days  
Heating Degree Days 20    
Moisture  
Dew Point 27 °F    
Average Humidity 56    
Maximum Humidity 87    
Minimum Humidity 29    
Precipitation  
Precipitation 0.00 in - - ()
Sea Level Pressure  
Sea Level Pressure 29.70 in    
Wind  
Wind Speed 12 mph ()    
Max Wind Speed 25 mph    
Max Gust Speed 24 mph    
Visibility 10.0 miles    
Events Rain    
Averages and records for this station are not official NWS values.
T = Trace of Precipitation, MM = Missing Value Source: Averaged Metar Reports

Daily Weather History Graph

Daily Weather History Graph

Search for Another Location

Airport or City:

Astronomy

Oct. 19, 2019 Rise Set
Actual Time 7:48 AM MDT 6:29 PM MDT
Civil Twilight 7:17 AM MDT 7:00 PM MDT
Nautical Twilight 6:42 AM MDT 7:36 PM MDT
Astronomical Twilight 6:06 AM MDT 8:11 PM MDT
Moon 10:24 PM MDT (10/19) 1:42 PM MDT (10/19)
Length of Visible Light 11h 43m
Length of Day
10h 40m
Waning Gibbous, 69% of the Moon is Illuminated
Oct 19
Waning Gibbous
Oct 21
Last Quarter
Oct 27
New
Nov 4
First Quarter
Nov 12
Full

Hourly Weather History & Observations

Time (MDT) Temp. Windchill Dew Point Humidity Pressure Visibility Wind Dir Wind Speed Gust Speed Precip Events Conditions
12:58 AM 40.8 °F 32.6 °F 24.4 °F 52% 29.82 in 10.0 mi SW 16.1 mph - N/A   Overcast
1:58 AM 40.3 °F 31.9 °F 23.7 °F 52% 29.81 in 10.0 mi SW 16.1 mph - N/A   Overcast
2:58 AM 39.0 °F 30.6 °F 23.7 °F 54% 29.82 in 10.0 mi SW 15.0 mph - N/A   Overcast
3:58 AM 39.9 °F 31.4 °F 25.0 °F 55% 29.81 in 10.0 mi SW 16.1 mph - N/A   Overcast
4:58 AM 41.4 °F 32.4 °F 24.1 °F 50% 29.79 in 10.0 mi SW 19.6 mph - N/A   Mostly Cloudy
5:58 AM 41.9 °F 33.4 °F 23.4 °F 48% 29.78 in 10.0 mi WSW 18.4 mph - N/A   Overcast
6:58 AM 41.9 °F 34.3 °F 23.2 °F 47% 29.78 in 10.0 mi SW 15.0 mph 24.2 mph N/A   Mostly Cloudy
8:58 AM 43.9 °F 34.5 °F 22.3 °F 42% 29.73 in 10.0 mi SSW 25.3 mph - N/A   Scattered Clouds
9:58 AM 45.0 °F 37.1 °F 22.3 °F 41% 29.73 in 10.0 mi SSW 19.6 mph - N/A   Mostly Cloudy
10:58 AM 46.6 °F - 22.1 °F 38% 29.72 in 10.0 mi SSW 20.7 mph - N/A   Mostly Cloudy
11:58 AM 49.1 °F - 22.3 °F 35% 29.68 in 10.0 mi SSW 15.0 mph 23.0 mph N/A   Mostly Cloudy
12:58 PM 51.8 °F - 19.9 °F 29% 29.65 in 10.0 mi WSW 15.0 mph - N/A   Mostly Cloudy
1:58 PM 50.7 °F - 19.4 °F 29% 29.61 in 10.0 mi SSW 18.4 mph 23.0 mph N/A   Scattered Clouds
2:58 PM 50.4 °F - 20.1 °F 30% 29.59 in 10.0 mi WSW 5.8 mph - N/A   Mostly Cloudy
3:58 PM 49.8 °F - 20.8 °F 32% 29.59 in 10.0 mi WSW 8.1 mph - N/A   Overcast
4:58 PM 49.1 °F - 21.4 °F 34% 29.58 in 10.0 mi WSW 9.2 mph - N/A   Overcast
5:58 PM 44.1 °F 35.9 °F 30.4 °F 59% 29.62 in 10.0 mi SW 19.6 mph - N/A   Overcast
6:58 PM 41.9 °F 35.9 °F 31.3 °F 66% 29.62 in 10.0 mi SW 10.4 mph - N/A   Overcast
7:58 PM 39.0 °F 35.7 °F 32.5 °F 78% 29.65 in 10.0 mi South 4.6 mph - N/A   Overcast
8:54 PM 39.2 °F 37.0 °F 33.8 °F 81% 29.67 in 10.0 mi SW 3.5 mph - N/A Rain Light Rain
8:58 PM 39.4 °F 37.2 °F 33.3 °F 79% 29.67 in 10.0 mi SW 3.5 mph - N/A   Light Drizzle
9:58 PM 40.6 °F - 34.0 °F 77% 29.69 in 10.0 mi Calm Calm - N/A Rain Light Rain Showers
10:04 PM 41.0 °F - 33.8 °F 76% 29.69 in 10.0 mi Calm Calm - N/A   Overcast
10:05 PM 41.0 °F - 33.8 °F 76% 29.69 in 10.0 mi Calm Calm - N/A Rain Light Rain Showers
10:27 PM 39.2 °F 37.0 °F 33.8 °F 81% 29.70 in 10.0 mi North 3.5 mph - N/A   Overcast
10:58 PM 40.1 °F - 34.5 °F 80% 29.70 in 10.0 mi Calm Calm - N/A   Overcast
11:16 PM 39.2 °F - 35.6 °F 87% 29.72 in 10.0 mi Calm Calm - N/A Rain Light Rain